This demonstration page uses our WeatherBlox Daily Observations layout. Learn more.

Left ArrowRight Arrow

Hourly Observations for November 17, 2020

Temp ( °F °C ) Dew Point ( °F °C ) Humidity (%) Winds ( mph kmh ) Pressure ( in mb ) Visibility ( mi km ) Precip ( " mm )
12:15 am 00:15 Cloudy 37 2.9 23 -5.2 56 56 SSE 3 6 30.47 1032 10 16 N/A
12:35 am 00:35 Partly Cloudy 38 3.5 22 -5.5 52 52 S 3 6 30.45 1031 10 16 N/A
12:55 am 00:55 Mostly Cloudy 37 3 22 -5.5 54 54 S 5 7 30.47 1032 10 16 N/A
1:15 am 01:15 Cloudy 37 3 22 -5.5 54 54 S 5 7 30.47 1032 10 16 N/A
1:35 am 01:35 Cloudy 35 1.9 22 -5.4 59 59 N N/A 30.47 1032 10 16 N/A
1:55 am 01:55 Partly Cloudy 38 3.4 22 -5.6 52 52 S 5 7 30.45 1031 10 16 N/A
2:15 am 02:15 Clear 38 3.6 22 -5.5 52 52 S 6 9 30.45 1031 10 16 N/A
2:35 am 02:35 Clear 38 3.5 22 -5.3 53 53 S 6 9 30.43 1031 10 16 N/A
2:55 am 02:55 Clear 33 0.5 22 -5.4 65 65 S 5 7 30.47 1032 10 16 N/A
3:15 am 03:15 Clear 37 2.7 22 -5.5 55 55 S 6 9 30.45 1031 10 16 N/A
3:35 am 03:35 Clear 36 2.1 21 -5.9 56 56 S 5 7 30.46 1031 10 16 N/A
3:55 am 03:55 Clear 35 1.9 21 -6 56 56 SSE 5 7 30.45 1031 10 16 N/A
4:15 am 04:15 Clear 35 1.8 21 -6 57 57 S 5 7 30.45 1031 10 16 N/A
4:35 am 04:35 Clear 33 0.3 21 -6 63 63 SE 3 6 30.46 1032 10 16 N/A
4:55 am 04:55 Clear 34 1.3 22 -5.8 60 60 S 6 9 30.46 1032 10 16 N/A
5:15 am 05:15 Clear 34 1 22 -5.6 62 62 S 5 7 30.47 1032 10 16 N/A
5:35 am 05:35 Clear 32 -0.1 22 -5.7 66 66 SSE 5 7 30.47 1032 10 16 N/A
5:55 am 05:55 Clear 32 0.2 22 -5.5 66 66 SSE 5 7 30.47 1032 10 16 N/A
6:15 am 06:15 Clear 32 -0.1 22 -5.6 67 67 SSE 5 7 30.48 1032 10 16 N/A
6:35 am 06:35 Clear 31 -0.6 22 -5.8 68 68 SSE 6 9 30.48 1032 10 16 N/A
6:55 am 06:55 Clear 29 -1.9 21 -6 74 74 SSE 5 7 30.48 1032 10 16 N/A
7:15 am 07:15 Clear 28 -2 22 -5.6 77 77 SSE 6 9 30.50 1033 10 16 N/A
7:35 am 07:35 Sunny 32 -0.1 23 -5 70 70 S 9 15 30.47 1032 10 16 N/A
7:55 am 07:55 Sunny 35 1.6 24 -4.5 64 64 S 10 17 30.45 1031 10 16 N/A
8:15 am 08:15 Sunny 36 2.1 24 -4.2 63 63 SSE 7 11 30.45 1031 10 16 N/A
8:35 am 08:35 Sunny 38 3.5 26 -3.4 61 61 SSE 7 11 30.44 1031 10 16 N/A
8:55 am 08:55 Sunny 42 5.3 27 -3 55 55 S 12 19 30.42 1030 10 16 N/A
9:15 am 09:15 Sunny 44 6.9 27 -3 50 50 S 15 24 30.39 1029 10 16 N/A
9:35 am 09:35 Sunny 46 8 26 -3.5 44 44 S 15 24 30.37 1028 10 16 N/A
9:55 am 09:55 Sunny 49 9.4 26 -3.4 41 41 S 16 26 30.36 1028 10 16 N/A
10:15 am 10:15 Sunny 51 10.5 26 -3.6 37 37 S 17 28 30.35 1028 10 16 N/A
10:35 am 10:35 Sunny 52 11 26 -3.1 37 37 S 18 30 30.33 1027 10 16 N/A
10:55 am 10:55 Sunny 54 12.1 27 -2.8 36 36 S 16 26 30.31 1027 10 16 N/A
11:15 am 11:15 Sunny 55 13 27 -2.7 34 34 S 17 28 30.30 1026 10 16 N/A
11:35 am 11:35 Sunny 56 13.5 27 -2.6 33 33 S 16 26 30.27 1025 10 16 N/A
11:55 am 11:55 Sunny 58 14.3 28 -2.4 32 32 S 22 35 30.24 1024 10 16 N/A
12:15 pm 12:15 Sunny 58 14.6 28 -2.4 31 31 S 21 33 30.24 1024 10 16 N/A
12:35 pm 12:35 Sunny 59 14.8 28 -2 32 32 S 18 30 30.23 1024 10 16 N/A
12:55 pm 12:55 Sunny 59 15.1 29 -1.7 32 32 S 20 31 30.21 1023 10 16 N/A
1:15 pm 13:15 Sunny 61 16.2 29 -1.4 30 30 S 21 33 30.18 1022 10 16 N/A
1:35 pm 13:35 Sunny 63 17.1 30 -1.2 29 29 S 21 33 30.16 1021 10 16 N/A
1:55 pm 13:55 Sunny 64 18 30 -1.1 28 28 S 17 28 30.14 1021 10 16 N/A
2:15 pm 14:15 Sunny 65 18.4 30 -1.2 27 27 S 17 28 30.13 1020 10 16 N/A
2:35 pm 14:35 Sunny 66 19 29 -1.5 25 25 S 17 28 30.13 1020 10 16 N/A
2:55 pm 14:55 Sunny 66 19.1 29 -1.6 25 25 S 18 30 30.12 1020 10 16 N/A
3:15 pm 15:15 Sunny 67 19.6 29 -1.7 24 24 S 16 26 30.11 1020 10 16 N/A
3:35 pm 15:35 Sunny 67 19.5 29 -1.7 24 24 S 18 30 30.09 1019 10 16 N/A
3:55 pm 15:55 Sunny 65 18.5 29 -1.7 26 26 S 15 24 30.10 1019 10 16 N/A
4:15 pm 16:15 Sunny 65 18.5 30 -1.2 26 26 S 15 24 30.10 1019 10 16 N/A
4:35 pm 16:35 Sunny 65 18.5 30 -1.1 27 27 S 13 20 30.09 1019 10 16 N/A
4:55 pm 16:55 Sunny 63 17.3 30 -1 29 29 S 10 17 30.10 1019 10 16 N/A
5:15 pm 17:15 Sunny 61 15.9 30 -1 32 32 S 9 15 30.10 1019 10 16 N/A
5:35 pm 17:35 Clear 57 13.8 30 -1.3 36 36 SSE 8 13 30.12 1020 10 16 N/A
5:55 pm 17:55 Clear 54 12 29 -1.8 39 39 SSE 8 13 30.14 1020 10 16 N/A
6:15 pm 18:15 Clear 52 11 29 -1.7 41 41 SSE 8 13 30.13 1020 10 16 N/A
6:35 pm 18:35 Clear 51 10.6 29 -1.6 43 43 SSE 10 17 30.15 1021 10 16 N/A
6:55 pm 18:55 Clear 52 11.2 29 -1.5 42 42 SSE 9 15 30.13 1020 10 16 N/A
7:15 pm 19:15 Clear 53 11.9 30 -1.2 41 41 SSE 10 17 30.14 1021 10 16 N/A
7:35 pm 19:35 Clear 54 12 30 -1.1 41 41 SSE 10 17 30.13 1020 10 16 N/A
7:55 pm 19:55 Clear 54 12 30 -1.2 40 40 S 12 19 30.12 1020 10 16 N/A
8:15 pm 20:15 Clear 54 12 30 -1.3 40 40 S 14 22 30.12 1020 10 16 N/A
8:35 pm 20:35 Clear 52 11.1 30 -1.3 42 42 S 14 22 30.11 1020 10 16 N/A
8:55 pm 20:55 Clear 51 10.7 30 -1.3 44 44 S 15 24 30.12 1020 10 16 N/A
9:15 pm 21:15 Clear 51 10.3 30 -1.2 45 45 SSE 14 22 30.11 1020 10 16 N/A
9:35 pm 21:35 Clear 50 10 30 -1.3 46 46 SSE 14 22 30.10 1019 10 16 N/A
9:55 pm 21:55 Clear 50 9.8 29 -1.5 46 46 S 14 22 30.10 1019 10 16 N/A
10:15 pm 22:15 Clear 48 8.7 30 -1.3 50 50 S 13 20 30.11 1020 10 16 N/A
10:35 pm 22:35 Clear 47 8.5 29 -1.4 50 50 S 13 20 30.11 1020 10 16 N/A
10:55 pm 22:55 Clear 47 8.2 29 -1.4 51 51 S 13 20 30.11 1020 10 16 N/A
11:15 pm 23:15 Clear 46 7.9 29 -1.5 52 52 S 13 20 30.10 1019 10 16 N/A
11:35 pm 23:35 Clear 46 7.6 29 -1.6 52 52 S 14 22 30.09 1019 10 16 N/A
11:55 pm 23:55 Clear 44 6.5 29 -1.6 57 57 S 10 17 30.09 1019 10 16 N/A

Powered by AerisWeather